Weather in Kaunas

Lithuania     54°53′48″N   23°53′11″E
temp.,
°C
wind,
m/s
gust,
m/s
humid.,
%
clouds,
%
prec.,
mm/h
press.,
hPa
HPBL,
m
6 august, fri
fri600:00+13ene51283100 0.0 1011358
03:00+11ne51294100 0.0 1009444
06:00+11ne71491100 0.0 1007453
09:00+12ne81694100 2.2 1005580
12:00+13ne81795100 6.1 1004724
15:00+13ne81596100 6.8 1002800
18:00+14ne71395100 0.0 1001626
21:00+14ne61296100 0.3 1000497
7 august, sat
sat700:00+15ene51198100 0.9 999449
03:00+16ese479799 1.0 998379
06:00+14ese3699100 0.5 999342
09:00+14se3598100 0.8 1000335
12:00+15sse1397100 0.1 1001318
15:00+15w2596100 0.3 1003419
18:00+16wsw4795100 0.3 1005431
21:00+15sw379778 0.3 1007195
8 august, sun
sun800:00+15wsw410969 0.1 1009318
03:00+13sw369758 0.1 1010111
06:00+12ssw229515 0.0 101129
09:00+17sse2383100 0.0 1011250
12:00+23se4660100 0.0 1011820
15:00+25se6854100 0.0 10101437
18:00+22sse6127796 0.5 1009415
21:00+19sw6129138 2.3 1010405
9 august, mon
mon900:00+17wsw5119434 0.1 1012579
03:00+15sw499820 0.1 1014272
06:00+14sw389733 0.0 1015176
09:00+18sw468594 0.0 1016355
12:00+22sw58585 0.3 10171461
15:00+24wsw684763 0.3 10172329
18:00+22wsw485960 0.1 1018485
21:00+17w22810 0.3 101915
10 august, tue
tue1000:00+15wnw11895 0.0 102010
03:00+14ssw118986 0.0 102010
06:00+14se2288100 0.0 102014
09:00+18se2374100 0.0 1019245
12:00+21s3362100 0.9 1019591
15:00+24ssw234599 0.9 10181742
18:00+22sse345576 0.0 1016524
21:00+16nw2494100 0.8 101795